タットル-ジャコビニ-クレサーク彗星

41P/Tuttle-Giacobini-Kresak (2017)

English version
Home page
Updated on February 7, 2017

---------------------------------------------------------------------

・ プロフィール

・ 写真集

・ 軌道要素

Epoch 2017 Mar. 28.0 TT = JDT 2457840.5
T 2017 Apr. 12.74715 TT                                 MPCW
q   1.0450492            (2000.0)            P               Q
n   0.18192600     Peri.   62.15139     -0.91179453     +0.39809128
a   3.0846522      Node   141.07045     -0.40999040     -0.86863567
e   0.6612100      Incl.    9.22806     -0.02320787     -0.29494983
P   5.42
From 446 observations 2006 Feb. 3-2016 Dec. 8, mean residual 0".8.
     Nongravitational parameters A1 = +0.67, A2 = -0.0160.

・ 星図

・ 光度変化

        m1 = 13.5 + 5 logΔ + 18.0 log r  [   ,-65]  (              〜2017年 2月 7日)
        m1 =  8.5 + 5 logΔ + 55   log r  [-65,  0]  (2017年 2月 7日〜2017年 4月13日)
        m1 =  9.0 + 5 logΔ + 30   log r  [  0,   ]  (2017年 4月13日〜              )

---------------------------------------------------------------------

軌道要素はM.P.E.C. 2016-X84に掲載されたものです。
星図はステラナビゲータ Ver.8 (アストロアーツ) で作成したものです。
光度グラフはComet for Windowsで作成したものです。

---------------------------------------------------------------------

Copyright(C) Seiichi Yoshida (comet@aerith.net). All rights reserved.